Regional Weather Roundup
Issued by NWS Upton, NY

Current Version | Previous Version | Text Only | Print | Product List | Glossary On
Versions: 1 2 3 4 5 6 7 8 9 10 11 12 13 14 15 16 17 18 19 20 21 22 23 24 25 26 27 28 29 30 31 32 33 34 35 36 37 38 39 40 41 42 43 44 45 46 47 48 49 50
000 ASUS41 KOKX 272109 RWROKX REGIONAL WEATHER ROUNDUP NATIONAL WEATHER SERVICE NEW YORK NY 500 PM EDT TUE JUN 27 2017 NOTE: "FAIR" INDICATES FEW OR NO CLOUDS BELOW 12,000 FEET WITH NO SIGNIFICANT WEATHER AND/OR OBSTRUCTIONS TO VISIBILITY. NYZ071-072-176-178-NJZ106-104-272200- NEW YORK CITY METRO AREA CITY SKY/WX TMP DP RH WIND PRES REMARKS Central Park PTSUNNY 74 59 59 MISG 29.95F Bronx Bot Gard N/A 73 57 56 S2 29.92F LaGuardia APRT PTSUNNY 75 59 57 S14G24 29.92S Kennedy INTL MOSUNNY 73 62 68 S14 29.95F Breezy Point N/A 68 N/A N/A S9 N/A Newark/Liberty PTSUNNY 77 53 43 SW9G17 29.92F Teterboro PTSUNNY 79 52 38 SW15G21 29.90F $$ NYZ177-179-078>081-272200- LONG ISLAND NEW YORK CITY SKY/WX TMP DP RH WIND PRES REMARKS Jones Beach N/A 70 N/A N/A S6G12 N/A Matinecock PT N/A N/A N/A N/A SW15 N/A Farmingdale NOT AVBL MacArthur/ISP PTSUNNY 73 56 54 SW13G21 29.92F Shirley SUNNY 75 58 55 S13 29.93F Mt Sinai Harb N/A N/A N/A N/A CALM N/A Westhampton SUNNY 73 59 61 S10 29.95F East Hampton FAIR 72 65 78 S8 29.93F Montauk N/A 72 65 78 S9 29.95 $$ NYZ052-065-067-272200- HUDSON VALLEY CITY SKY/WX TMP DP RH WIND PRES REMARKS White Plains MOSUNNY 77 47 34 VRB6 29.91F Larchmont Harb N/A 72 N/A N/A S17 N/A Croton O-T Hud N/A 73 N/A N/A W17 N/A Newburgh MOSUNNY 72 55 56 W13G20 29.94R Montgomery CLOUDY 71 48 43 SW10G18 29.93R Poughkeepsie PTSUNNY 76 45 33 SW13G23 29.90R Albany CLOUDY 62 50 64 W20G35 29.94R $$ NJZ001-105-106-008-010-013-015-019>022-104-272200- NEW JERSEY CITY SKY/WX TMP DP RH WIND PRES REMARKS Newark/Liberty PTSUNNY 77 53 43 SW9G17 29.92F Teterboro PTSUNNY 79 52 38 SW15G21 29.90F Caldwell MOSUNNY 79 48 33 NW17G24 29.93S Somerville SUNNY 77 51 40 VRB6 29.92S Linden FAIR 77 49 36 W9G21 29.93S Perth Amboy N/A 75 N/A N/A W14 N/A Sussex PTSUNNY 69 53 56 VRB3 29.95S Andover N/A 67 58 72 CALM 29.95F Trenton SUNNY 78 49 35 W13 29.94S Millville PTSUNNY 79 56 45 W9 29.96S Atlantic City SUNNY 81 51 35 W10 29.95 Wrightstown PTSUNNY 78 54 43 W8 29.91F Toms River MOSUNNY 80 54 40 NW7 29.95S Belmar MOSUNNY 74 53 48 SE6 29.96F $$ PAZ047>061-062-071-272200- EASTERN PENNSYLVANIA CITY SKY/WX TMP DP RH WIND PRES REMARKS Philadelphia MOSUNNY 79 48 33 W12G21 29.95S Allentown PTSUNNY 73 52 47 NW10 29.94F Scranton CLOUDY 67 54 63 SW8 29.95F $$ CTZ002-004>006-009-010-012-RIZ004-006-007-MAZ004-011-015-272200- SOUTHERN NEW ENGLAND IN CT CITY SKY/WX TMP DP RH WIND PRES REMARKS Bradley INTL PTSUNNY 72 58 61 S9 29.91R Hartford TSTM 67 57 70 S8G22 29.91R Danbury MOSUNNY 74 50 42 SW9G18 29.92 Wtrbury/Oxford MOSUNNY 73 55 53 MISG 29.92F Bridgeport MOSUNNY 74 61 63 S7 29.91F Meriden PTSUNNY 70 57 63 NE5 29.91R New Haven MOSUNNY 73 62 68 S10 29.91F Chester FAIR 75 61 60 SW12G17 29.92S Groton CLOUDY 71 62 73 S14 29.91F Wilimantic PTSUNNY 76 59 55 S13G23 29.91S IN RI CITY SKY/WX TMP DP RH WIND PRES REMARKS Providence PTSUNNY 75 53 46 S22G30 29.92F Block Island MOSUNNY 71 62 73 S17 29.93F Westerly PTSUNNY 71 59 65 S14 29.93F IN MA CITY SKY/WX TMP DP RH WIND PRES REMARKS Boston PTSUNNY 75 52 44 S22G33 29.90F Worcester PTSUNNY 59 55 87 SW7 29.93F Westfield MOSUNNY 72 61 68 S10 29.89S Provincetown CLOUDY 71 58 63 S10 29.94F Nantucket PTSUNNY 65 63 93 S8 29.97F $$ ANZ330-335-338-340-345-350-353-355-272200- COASTAL MARINE OBSERVATIONS STATION/POSITION TIME SKY/WX TEMP WIND PRES VSBY WAVE AIR SEA DIR/SP/G HT/PER (UTC) (F) (DEG/KT/KT) (MB) (MI) (FT/S) NY HARB ENTRANCE 1950 68 70 160/ 8/ 10 1014.1 1/ 9 20 S FIRE ISLAND 2050 70 71 220/ 8/ 8 1013.7 1/ 8 GREAT SOUTH BAY 2015 70 76 210/ 12/ 14 N/A 23 SSW MONTAUK P 1950 68 66 1014.3 2/ 4 15 E BARNEGAT LI 2030 67 N/A 2/ 7 HUDSON CANYON 1950 70 69 200/ 8/ 10 1014.5 2/ 7 KINGS POINT 2030 73 65 240/ 10/ 18 1012.9 EXECUTION ROCKS 2030 72 200/ 12/ 16 N/A CENTRAL LI SOUND 2000 68 80/ 4/ 8 N/A 0 EASTERN LI SOUND NOT AVBL ROBBINS REEF 2030 170/ 17/ 18 1014.0 $$ >>>>>>>>>>>>>>>>>>>>>>>>>>>> KEY <<<<<<<<<<<<<<<<<<<<<<<<<<< > < > SKY/WX - Sky Condition/Present Weather < > TMP - Temperature in Fahrenheit < > DP - Dew Point in Fahrenheit < > RH - Relative Humidity in Percent < > WIND - Direction (from) and Speed in MPH < > PRES - Mean Sea Level Pressure (inches of Hg) < > WCI - Wind Chill Index < > VSB - VISIBILITY IN MILES < > HX - HEAT INDEX < > TC - TEMPERATURE IN CELSIUS < > VRB - VARIABLE WIND DIRECTION < > < >>>>>>>>>>>>>>>>>>>>>>>>>>>> KEY <<<<<<<<<<<<<<<<<<<<<<<<<<<

USA.gov is the U.S. government's official web portal to all federal, state and local government web resources and services.